EN

Hourly Weather Vydyniv

Today, 24 October, Saturday

Time Temperature Precipitation Wind Pressure Humidity
00:00 +14°C° 0 mm 1 mps 741 mmHg 81%
01:00 +12°C° 0 mm 0 mps 741 mmHg 81%
02:00 +12°C° 0 mm 0 mps 741 mmHg 81%
03:00 +12°C° 0 mm 0 mps 741 mmHg 83%
04:00 +12°C° 0 mm 1 mps 741 mmHg 86%
05:00 +12°C° 0 mm 1 mps 741 mmHg 86%
06:00 +12°C° 0 mm 1 mps 740 mmHg 87%
07:00 +11°C° 0 mm 0 mps 740 mmHg 87%
08:00 +11°C° 0 mm 0 mps 741 mmHg 87%
09:00 +13°C° 0 mm 0 mps 741 mmHg 86%
10:00 +14°C° 0 mm 0 mps 741 mmHg 88%
11:00 +17°C° 0 mm 2 mps 741 mmHg 83%
12:00 +18°C° 0 mm 2 mps 741 mmHg 80%
13:00 +18°C° 0 mm 2 mps 741 mmHg 78%
14:00 +19°C° 0 mm 4 mps 741 mmHg 78%
15:00 +19°C° 0 mm 4 mps 742 mmHg 78%
16:00 +18°C° 0 mm 4 mps 741 mmHg 83%
17:00 +17°C° 0 mm 3 mps 742 mmHg 89%
18:00 +15°C° 0 mm 2 mps 742 mmHg 95%
19:00 +14°C° 0 mm 2 mps 742 mmHg 98%
20:00 +14°C° 0 mm 1 mps 743 mmHg 98%
21:00 +13°C° 0 mm 0 mps 743 mmHg 98%
22:00 +14°C° 0 mm 1 mps 743 mmHg 99%
23:00 +14°C° 0 mm 2 mps 743 mmHg 98%

Tomorrow, 25 October, Sunday

Time Temperature Precipitation Wind Pressure Humidity
00:00 +13°C° 0 mm 2 mps 743 mmHg 99%
01:00 +12°C° 0 mm 3 mps 743 mmHg 99%
02:00 +12°C° 0 mm 2 mps 743 mmHg 99%
03:00 +12°C° 0 mm 1 mps 743 mmHg 100%
04:00 +12°C° 0 mm 1 mps 743 mmHg 100%
05:00 +12°C° 0 mm 1 mps 743 mmHg 99%
06:00 +12°C° 0 mm 1 mps 743 mmHg 98%
07:00 +12°C° 0 mm 1 mps 744 mmHg 97%
08:00 +12°C° 0 mm 1 mps 744 mmHg 97%
09:00 +12°C° 0 mm 2 mps 744 mmHg 97%
10:00 +12°C° 0 mm 1 mps 744 mmHg 96%
11:00 +12°C° 0 mm 2 mps 744 mmHg 97%
12:00 +10°C° 0.6 mm 2 mps 744 mmHg 100%
13:00 +12°C° 0.4 mm 2 mps 743 mmHg 97%
14:00 +12°C° 0.1 mm 2 mps 743 mmHg 97%
15:00 +11°C° 0.2 mm 3 mps 743 mmHg 97%
16:00 +11°C° 0 mm 3 mps 743 mmHg 97%
17:00 +12°C° 0.1 mm 2 mps 743 mmHg 100%
18:00 +11°C° 0 mm 3 mps 742 mmHg 99%
19:00 +11°C° 0 mm 3 mps 743 mmHg 99%
20:00 +10°C° 0.6 mm 2 mps 743 mmHg 100%
21:00 +10°C° 1.8 mm 2 mps 743 mmHg 100%
22:00 +10°C° 0.8 mm 2 mps 742 mmHg 100%
23:00 +10°C° 0.2 mm 2 mps 742 mmHg 100%

Day after tomorrow, 26 October, Monday

Time Temperature Precipitation Wind Pressure Humidity
00:00 +10°C° 0.3 mm 2 mps 742 mmHg 100%
01:00 +10°C° 0.5 mm 3 mps 742 mmHg 100%
02:00 +10°C° 0.1 mm 3 mps 742 mmHg 100%
03:00 +10°C° 0 mm 3 mps 742 mmHg 100%
04:00 +10°C° 0 mm 3 mps 742 mmHg 100%
05:00 +10°C° 0 mm 4 mps 741 mmHg 100%
06:00 +9°C° 0 mm 5 mps 741 mmHg 100%
07:00 +10°C° 0 mm 4 mps 741 mmHg 100%
08:00 +10°C° 0 mm 4 mps 741 mmHg 100%
09:00 +9°C° 0 mm 5 mps 741 mmHg 100%
10:00 +10°C° 0 mm 5 mps 741 mmHg 98%
11:00 +10°C° 0 mm 5 mps 741 mmHg 97%
12:00 +12°C° 0 mm 5 mps 741 mmHg 96%
13:00 +13°C° 0 mm 5 mps 741 mmHg 96%
14:00 +13°C° 0 mm 5 mps 741 mmHg 96%
15:00 +13°C° 0 mm 5 mps 741 mmHg 96%
16:00 +12°C° 0 mm 5 mps 741 mmHg 97%
17:00 +12°C° 0 mm 5 mps 741 mmHg 99%
18:00 +12°C° 0 mm 4 mps 741 mmHg 99%
19:00 +12°C° 0 mm 4 mps 741 mmHg 99%
20:00 +11°C° 0 mm 4 mps 741 mmHg 98%
21:00 +11°C° 0 mm 3 mps 742 mmHg 99%
22:00 +11°C° 0 mm 3 mps 742 mmHg 99%
23:00 +12°C° 0 mm 2 mps 742 mmHg 99%

, 27 October, Tuesday

Time Temperature Precipitation Wind Pressure Humidity
00:00 +12°C° 0 mm 2 mps 742 mmHg 100%
01:00 +12°C° 0 mm 1 mps 742 mmHg 100%
02:00 +12°C° 0 mm 1 mps 742 mmHg 100%
03:00 +11°C° 0 mm 1 mps 742 mmHg 100%
04:00 +11°C° 0 mm 1 mps 742 mmHg 100%
05:00 +11°C° 0 mm 1 mps 742 mmHg 100%
06:00 +11°C° 0 mm 1 mps 742 mmHg 100%
07:00 +11°C° 0 mm 1 mps 742 mmHg 100%
08:00 +11°C° 0 mm 1 mps 742 mmHg 100%
09:00 +10°C° 0 mm 2 mps 742 mmHg 100%
10:00 +10°C° 0 mm 2 mps 743 mmHg 100%
11:00 +11°C° 0 mm 3 mps 742 mmHg 97%
12:00 +12°C° 0 mm 3 mps 742 mmHg 96%
13:00 +14°C° 0 mm 4 mps 742 mmHg 95%
14:00 +15°C° 0 mm 5 mps 742 mmHg 93%
15:00 +15°C° 0 mm 5 mps 742 mmHg 94%
16:00 +14°C° 0 mm 4 mps 742 mmHg 96%
17:00 +14°C° 0 mm 4 mps 742 mmHg 97%
18:00 +13°C° 0 mm 4 mps 742 mmHg 98%
19:00 +13°C° 0 mm 4 mps 742 mmHg 98%
20:00 +13°C° 0 mm 4 mps 742 mmHg 97%
21:00 +13°C° 0 mm 4 mps 742 mmHg 98%
22:00 +12°C° 0 mm 3 mps 742 mmHg 99%
23:00 +12°C° 0 mm 4 mps 742 mmHg 99%

27 October, Tuesday

Time Temperature Precipitation Wind Pressure Humidity
00:00 +12°C° 0 mm 2 mps 742 mmHg 100%
01:00 +12°C° 0 mm 1 mps 742 mmHg 100%
02:00 +12°C° 0 mm 1 mps 742 mmHg 100%
03:00 +11°C° 0 mm 1 mps 742 mmHg 100%
04:00 +11°C° 0 mm 1 mps 742 mmHg 100%
05:00 +11°C° 0 mm 1 mps 742 mmHg 100%
06:00 +11°C° 0 mm 1 mps 742 mmHg 100%
07:00 +11°C° 0 mm 1 mps 742 mmHg 100%
08:00 +11°C° 0 mm 1 mps 742 mmHg 100%
09:00 +10°C° 0 mm 2 mps 742 mmHg 100%
10:00 +10°C° 0 mm 2 mps 743 mmHg 100%
11:00 +11°C° 0 mm 3 mps 742 mmHg 97%
12:00 +12°C° 0 mm 3 mps 742 mmHg 96%
13:00 +14°C° 0 mm 4 mps 742 mmHg 95%
14:00 +15°C° 0 mm 5 mps 742 mmHg 93%
15:00 +15°C° 0 mm 5 mps 742 mmHg 94%
16:00 +14°C° 0 mm 4 mps 742 mmHg 96%
17:00 +14°C° 0 mm 4 mps 742 mmHg 97%
18:00 +13°C° 0 mm 4 mps 742 mmHg 98%
19:00 +13°C° 0 mm 4 mps 742 mmHg 98%
20:00 +13°C° 0 mm 4 mps 742 mmHg 97%
21:00 +13°C° 0 mm 4 mps 742 mmHg 98%
22:00 +12°C° 0 mm 3 mps 742 mmHg 99%
23:00 +12°C° 0 mm 4 mps 742 mmHg 99%

28 October, Wednesday

Time Temperature Precipitation Wind Pressure Humidity
00:00 +12°C° 0 mm 4 mps 742 mmHg 99%
01:00 +12°C° 0 mm 4 mps 742 mmHg 100%
02:00 +11°C° 0 mm 4 mps 742 mmHg 100%
03:00 +11°C° 0 mm 4 mps 742 mmHg 100%
04:00 +11°C° 0 mm 4 mps 742 mmHg 100%
05:00 +11°C° 0 mm 3 mps 742 mmHg 100%
06:00 +10°C° 0 mm 3 mps 742 mmHg 100%
07:00 +10°C° 0 mm 2 mps 742 mmHg 100%
08:00 +12°C° 0 mm 2 mps 742 mmHg 100%
09:00 +12°C° 0 mm 1 mps 742 mmHg 100%
10:00 +12°C° 0 mm 1 mps 743 mmHg 100%
11:00 +12°C° 0 mm 3 mps 743 mmHg 100%
12:00 +12°C° 0 mm 3 mps 743 mmHg 100%
13:00 +11°C° 0 mm 3 mps 743 mmHg 99%
14:00 +11°C° 0 mm 3 mps 743 mmHg 98%
15:00 +11°C° 0 mm 3 mps 742 mmHg 98%
16:00 +11°C° 0 mm 3 mps 742 mmHg 98%
17:00 +11°C° 0 mm 3 mps 742 mmHg 99%
18:00 +10°C° 0 mm 3 mps 742 mmHg 99%
19:00 +10°C° 0 mm 2 mps 742 mmHg 99%
20:00 +10°C° 0 mm 2 mps 743 mmHg 99%
21:00 +10°C° 0 mm 2 mps 743 mmHg 99%
22:00 +10°C° 0 mm 2 mps 743 mmHg 100%
23:00 +10°C° 0 mm 3 mps 743 mmHg 100%

29 October, Thursday

Time Temperature Precipitation Wind Pressure Humidity
00:00 +10°C° 0 mm 3 mps 743 mmHg 100%
01:00 +10°C° 0 mm 3 mps 742 mmHg 100%
02:00 +10°C° 0 mm 2 mps 742 mmHg 100%
03:00 +10°C° 0 mm 3 mps 742 mmHg 100%
04:00 +10°C° 0 mm 2 mps 742 mmHg 100%
05:00 +11°C° 0 mm 1 mps 742 mmHg 100%
06:00 +11°C° 0 mm 1 mps 742 mmHg 100%
07:00 +11°C° 0 mm 1 mps 742 mmHg 100%
08:00 +10°C° 0 mm 1 mps 743 mmHg 100%
09:00 +10°C° 0 mm 0 mps 743 mmHg 99%
10:00 +10°C° 0 mm 0 mps 743 mmHg 97%
11:00 +11°C° 0 mm 1 mps 743 mmHg 97%
12:00 +12°C° 0 mm 1 mps 744 mmHg 97%
13:00 +13°C° 0 mm 2 mps 744 mmHg 95%
14:00 +12°C° 0 mm 3 mps 744 mmHg 94%
15:00 +12°C° 0 mm 3 mps 744 mmHg 94%
16:00 +13°C° 0 mm 2 mps 744 mmHg 95%
17:00 +12°C° 0 mm 2 mps 745 mmHg 96%
18:00 +12°C° 0 mm 1 mps 745 mmHg 97%
19:00 +12°C° 0 mm 2 mps 745 mmHg 98%
20:00 +12°C° 0 mm 2 mps 746 mmHg 98%
21:00 +11°C° 0 mm 1 mps 746 mmHg 99%
22:00 +9°C° 0 mm 2 mps 746 mmHg 99%
23:00 +9°C° 0 mm 3 mps 747 mmHg 98%
Show more

We Need Your Consent

Meteoprog and our Service Providers may store and access personal data such as cookies, device identifiers or other similar technologies on your device and process such data to personalise content and ads, as well as provide social media features and to analyse the traffic.

  • Store and/or access information on your device

    Cookies, device identifiers or other information can be stored or accessed on your device for the purposes indicated above.

  • Personalised ads and content, ad and content measurement, audience insights, and products development

    Ads and content can be personalised based on a profile. More data can be added to better personalise ads and content. Ad and content performance can be measured. Insights about the audience who saw the ads and content can be derived. Such data can be used to develop or improve user’s experience, systems and software.

By clicking ‘I Agree’ you will allow the use of indicated cookies, device identifiers, web beacons or other similar technologies. Your settings can be changed in the browser on your device.

For certain purposes, legitimate interests may be relied on, rather than consent. You can read more about this in our Privacy and Cookie Policy.